Wind_Speed
12 11 10 10 9 8 8 7 6 6 6 6 5 5 5 5 5 5 5 5 6 6 6 6 6 5 6 6 7 6 6 6 6 6 6 5 5 5 6 6 6 6 6
12 11 10 10 8 8 7 7 7 6 6 6 6 5 5 5 5 5 4 5 5 5 5 4 5 5 6 6 6 6 6 6 7 6 6 5 5 5 5 6 6 7 6
11 11 10 10 9 8 8 7 6 6 6 5 6 5 5 5 5 4 4 4 4 5 4 4 4 5 6 6 6 6 7 6 7 6 5 6 6 5 5 5 5 6 7
11 11 10 9 9 9 8 8 7 6 6 5 6 6 5 5 5 4 5 5 4 4 5 5 5 5 5 5 7 7 7 7 6 6 6 6 7 7 6 5 5 6 7
10 10 9 9 9 9 8 8 8 7 6 6 5 6 6 5 5 5 5 6 5 4 5 5 5 5 5 6 6 7 7 7 6 6 6 6 7 7 7 6 6 7 7
10 9 9 9 9 8 8 8 8 7 7 6 5 5 6 5 5 6 6 6 6 6 6 6 6 6 5 6 6 6 7 7 6 7 7 6 7 7 7 6 6 6 6
10 9 9 9 8 8 7 7 7 7 7 6 5 5 6 6 6 5 6 6 6 6 6 6 7 7 6 6 6 6 7 7 6 7 7 7 8 8 7 7 8 7 7
10 10 10 9 8 8 8 7 8 8 7 7 7 6 6 6 6 6 6 5 5 6 6 6 6 6 5 6 6 6 7 7 7 7 8 8 9 9 8 7 7 7 6
10 10 10 9 8 8 8 8 7 8 7 7 7 7 7 7 7 6 6 6 5 5 5 5 6 6 6 5 6 6 6 6 7 7 7 8 9 9 8 7 7 7 6
10 10 10 10 9 8 8 8 7 7 7 7 7 7 7 7 7 7 6 5 5 5 5 5 5 6 5 5 6 6 6 5 5 5 6 8 8 8 8 8 7 7 6
10 10 10 10 10 10 9 8 7 7 7 7 8 8 8 8 7 7 6 6 6 6 5 5 5 4 4 3 5 6 6 5 5 5 6 8 8 8 8 7 7 7 7
10 10 10 10 10 10 10 9 8 8 8 8 8 8 8 8 7 7 7 6 6 6 6 6 6 5 4 3 3 4 5 5 5 6 7 8 8 9 8 7 7 7 7
11 11 10 10 10 9 9 8 8 8 8 8 8 9 9 8 7 7 7 7 7 8 7 6 6 5 4 3 2 3 3 4 5 6 7 8 8 8 8 7 7 7 7
12 12 11 10 10 9 8 8 9 9 8 8 9 9 8 8 8 8 8 8 7 6 6 5 5 5 5 3 3 3 3 5 6 6 7 7 7 7 7 7 7 7 7
12 12 12 10 10 9 9 9 10 10 9 9 9 9 9 8 8 7 8 8 7 5 4 3 3 3 4 3 3 3 3 4 6 7 7 7 7 7 7 7 7 7 7
12 12 12 11 11 10 9 10 10 9 9 9 9 9 9 9 8 8 7 6 5 4 3 1 1 2 3 3 3 2 3 4 6 7 7 7 7 7 7 7 7 7 6
13 12 12 11 11 11 10 10 9 9 8 9 9 9 9 9 8 7 5 5 4 3 2 1 1 2 3 3 3 3 3 3 6 6 7 6 6 6 6 6 6 6 6
12 12 12 12 12 11 10 10 10 9 8 9 9 9 9 9 8 7 5 4 4 3 2 2 3 3 4 4 3 4 4 4 5 5 7 7 6 6 6 7 6 6 5
12 12 12 13 12 12 11 11 10 9 10 10 10 10 10 10 8 7 6 5 4 4 3 3 4 5 5 4 4 4 5 5 5 6 7 7 7 7 7 6 6 6 6
12 12 12 13 13 13 12 12 11 11 12 12 11 10 11 11 9 8 7 5 5 5 4 4 4 5 6 6 5 5 5 5 5 6 7 7 7 7 7 7 6 6 6
13 13 13 13 13 13 13 13 13 13 12 12 12 11 11 11 10 10 8 7 7 6 5 5 5 5 6 6 6 5 5 5 6 7 8 8 8 8 8 7 7 7 7
14 14 13 14 14 14 14 14 14 13 12 12 12 12 11 11 10 9 8 8 8 8 7 7 6 6 6 6 6 6 6 6 7 8 8 8 8 9 9 8 8 8 8
14 14 14 14 15 15 15 14 13 13 13 12 13 13 13 11 10 10 9 9 9 9 9 8 8 7 7 7 7 7 7 8 8 9 9 9 8 9 10 10 10 9 9
14 14 14 14 15 15 15 15 14 14 13 12 13 12 13 13 12 11 11 11 10 10 10 9 9 8 8 8 8 8 8 8 9 9 9 10 10 10 10 10 10 10 10
15 15 14 13 14 15 15 14 14 13 13 12 12 12 13 12 12 12 12 11 11 11 11 11 10 10 10 10 10 9 9 9 9 10 10 10 10 10 10 10 10 10 11
15 15 15 15 14 14 14 14 14 13 12 12 13 13 13 12 12 12 13 12 12 12 12 12 12 11 11 11 11 10 10 10 10 10 10 10 10 10 10 10 11 11 12
Wind_Direction
8 11 6 5 5 2 358 350 342 329 320 315 309 304 296 291 289 290 288 282 269 264 263 258 253 254 252 245 237 232 231 238 236 226 218 211 208 207 198 192 194 197 192
7 9 5 4 6 3 358 351 342 331 321 313 309 305 300 296 290 288 290 289 273 263 262 259 248 250 252 250 237 233 235 239 238 228 217 211 220 210 204 203 204 203 201
8 7 5 3 4 2 358 352 346 335 324 318 313 309 306 302 301 293 293 288 277 268 260 248 252 255 255 254 244 238 239 236 226 222 221 221 215 208 208 208 206 208 202
6 6 3 1 1 359 357 354 350 341 336 330 321 313 311 309 309 303 297 287 281 266 261 264 260 261 263 260 248 241 238 230 225 222 221 216 213 207 209 208 209 203 197
3 2 2 1 1 359 356 354 352 346 337 331 327 319 311 311 312 307 299 294 291 279 270 269 269 264 264 259 252 243 235 234 226 219 221 219 215 211 210 208 204 203 198
358 358 360 360 359 358 356 355 352 348 340 330 325 319 314 311 310 311 308 297 290 289 282 271 268 262 264 258 252 243 237 233 226 225 224 222 215 211 208 207 201 199 197
357 356 356 358 356 357 356 354 351 349 346 341 330 325 320 314 311 309 309 307 300 292 286 271 269 262 265 259 253 247 241 236 233 232 233 226 216 214 209 204 194 196 198
357 356 355 354 354 359 359 353 349 347 348 344 338 335 327 324 321 321 313 304 298 291 282 278 279 268 266 256 246 247 248 247 242 241 240 223 212 209 208 205 202 195 199
354 352 353 353 355 355 356 352 349 345 343 343 338 334 330 328 323 320 317 310 297 287 283 287 283 279 269 254 243 244 246 248 245 240 227 213 204 204 206 207 202 197 202
355 354 353 352 349 348 347 345 344 344 343 341 340 336 333 328 322 319 318 314 308 297 291 293 287 285 277 260 245 243 251 243 235 223 210 200 198 199 202 204 202 200 207
348 351 352 349 347 346 344 341 341 341 340 339 342 339 332 324 318 315 315 314 311 305 298 295 284 279 273 257 241 235 239 232 220 208 197 192 193 197 200 208 206 209 215
340 346 349 347 347 347 345 342 340 337 334 334 334 334 329 322 316 312 311 313 308 300 291 284 276 264 257 242 228 228 229 225 205 195 195 195 197 203 205 211 212 215 220
339 340 344 343 343 344 344 343 338 334 330 331 330 329 326 319 313 308 308 309 305 299 290 281 267 260 251 236 215 217 217 209 197 193 194 196 199 205 209 216 218 218 220
335 335 336 338 338 337 336 336 335 330 327 328 330 332 328 319 311 307 305 306 306 303 299 286 266 254 242 231 229 231 224 199 193 192 194 197 201 206 211 216 215 218 220
328 330 333 331 331 333 331 331 330 329 328 327 327 330 326 323 317 312 312 308 305 309 310 298 256 239 234 226 239 243 227 207 200 192 192 194 199 208 213 218 214 216 222
322 324 326 327 329 329 327 326 325 324 324 324 325 325 324 323 323 317 310 307 306 311 322 316 226 213 215 211 228 244 226 205 194 190 191 194 201 206 212 213 211 212 220
318 318 322 326 327 328 325 321 322 323 321 320 323 326 323 325 325 316 310 311 307 302 306 258 251 219 212 214 225 229 219 206 188 194 197 195 201 211 210 211 205 211 220
314 316 320 324 326 325 323 319 318 319 317 317 317 318 317 319 321 319 314 313 313 298 286 258 251 230 222 217 220 222 220 207 216 202 205 204 207 212 212 215 208 211 225
311 311 314 319 322 323 320 315 313 313 313 311 312 310 312 313 309 313 310 305 304 296 282 268 246 232 231 227 225 225 227 225 225 215 211 215 216 220 222 220 221 221 239
305 307 310 315 317 319 318 314 310 308 310 308 307 303 304 306 302 301 295 285 279 286 283 274 259 245 241 237 231 230 237 232 226 224 220 223 226 227 227 230 230 232 238
304 306 307 310 309 312 312 311 305 302 302 303 305 301 297 298 298 296 285 279 273 273 274 278 269 251 242 239 237 240 242 241 240 231 228 233 236 234 233 238 238 238 241
302 301 302 304 305 306 308 310 305 299 297 297 295 295 293 297 296 292 283 274 271 271 271 275 271 261 251 245 245 246 245 244 245 239 235 237 241 242 240 241 240 243 247
301 300 301 298 302 303 304 306 305 301 296 293 294 294 295 294 291 285 283 273 267 266 266 267 266 262 258 254 252 254 252 247 243 243 243 242 243 247 248 244 239 244 246
300 296 295 295 298 301 303 302 301 299 292 290 291 291 292 290 288 284 278 274 269 265 263 260 260 262 261 262 260 258 255 251 250 249 247 245 244 248 250 246 243 245 248
295 294 291 293 295 297 299 299 298 296 292 291 289 289 289 285 284 281 276 272 270 268 261 255 258 258 255 258 261 261 260 254 254 254 251 250 250 248 246 246 248 249 250
294 295 296 295 295 295 296 295 295 292 293 293 288 285 284 280 276 275 271 272 269 266 263 255 255 256 253 255 259 262 261 256 255 250 249 250 251 250 248 250 250 252 253
Height
5894 5892 5891 5890 5889 5888 5887 5886 5885 5884 5883 5883 5882 5881 5881 5880 5879 5879 5878 5877 5876 5876 5876 5875 5875 5875 5875 5875 5876 5876 5876 5876 5877 5877 5877 5877 5878 5878 5879 5879 5880 5880 5881
5894 5892 5891 5890 5889 5888 5886 5886 5885 5884 5883 5882 5882 5881 5880 5879 5879 5878 5877 5876 5875 5875 5874 5874 5874 5874 5874 5874 5874 5874 5875 5875 5875 5875 5876 5877 5877 5878 5878 5879 5880 5880 5881
5894 5893 5891 5890 5889 5888 5886 5885 5884 5884 5882 5882 5881 5880 5880 5879 5878 5877 5876 5875 5875 5874 5873 5874 5873 5873 5873 5873 5873 5873 5873 5873 5874 5875 5875 5876 5877 5877 5878 5878 5879 5880 5880
5894 5893 5891 5890 5889 5888 5886 5885 5884 5883 5882 5881 5880 5880 5879 5878 5877 5876 5876 5875 5873 5873 5873 5873 5872 5872 5872 5872 5871 5872 5872 5872 5873 5874 5874 5875 5876 5877 5877 5878 5878 5879 5880
5894 5892 5891 5890 5889 5887 5886 5885 5884 5883 5882 5881 5880 5879 5878 5877 5877 5876 5875 5874 5873 5872 5872 5872 5872 5871 5871 5871 5871 5870 5870 5871 5872 5872 5873 5874 5875 5876 5877 5877 5878 5879 5879
5893 5892 5891 5889 5888 5887 5886 5885 5883 5882 5881 5880 5879 5878 5877 5877 5876 5875 5874 5873 5872 5872 5871 5871 5871 5870 5870 5870 5870 5869 5870 5870 5871 5871 5872 5872 5873 5874 5875 5876 5877 5878 5879
5893 5892 5890 5889 5888 5887 5885 5884 5883 5882 5880 5879 5878 5877 5877 5876 5875 5874 5873 5872 5871 5871 5870 5870 5869 5868 5868 5868 5868 5868 5869 5869 5869 5870 5870 5870 5872 5873 5874 5875 5877 5878 5879
5893 5892 5890 5889 5887 5886 5885 5884 5882 5881 5880 5879 5878 5877 5876 5875 5874 5873 5872 5871 5870 5869 5869 5868 5867 5867 5867 5867 5867 5867 5867 5867 5868 5868 5868 5868 5870 5872 5873 5875 5876 5877 5878
5892 5891 5890 5889 5887 5886 5884 5883 5882 5881 5879 5878 5877 5876 5875 5874 5873 5872 5871 5870 5869 5868 5867 5867 5866 5866 5865 5865 5866 5866 5866 5866 5866 5866 5866 5866 5868 5871 5872 5874 5875 5876 5877
5892 5891 5890 5888 5887 5885 5884 5883 5881 5880 5879 5878 5876 5875 5874 5873 5872 5871 5869 5868 5867 5867 5866 5865 5865 5864 5864 5864 5864 5864 5864 5865 5865 5865 5865 5866 5867 5870 5872 5873 5874 5875 5876
5890 5889 5889 5887 5886 5884 5883 5882 5880 5879 5878 5877 5875 5874 5873 5872 5870 5869 5868 5867 5866 5865 5864 5863 5863 5863 5862 5862 5862 5863 5863 5864 5864 5865 5865 5866 5868 5870 5871 5873 5874 5875 5876
5890 5889 5887 5886 5885 5884 5882 5881 5879 5878 5877 5876 5874 5873 5872 5871 5869 5867 5866 5865 5864 5863 5861 5861 5861 5861 5861 5861 5861 5861 5862 5863 5863 5864 5865 5866 5868 5869 5871 5872 5873 5874 5875
5890 5888 5886 5885 5884 5882 5881 5880 5879 5877 5876 5875 5873 5872 5871 5869 5867 5866 5865 5863 5862 5860 5858 5858 5858 5859 5860 5860 5860 5860 5861 5862 5863 5864 5865 5866 5867 5868 5870 5871 5872 5873 5873
5888 5886 5885 5883 5882 5881 5880 5878 5877 5876 5874 5873 5872 5870 5869 5867 5866 5864 5863 5861 5860 5858 5856 5855 5856 5857 5859 5859 5859 5860 5860 5861 5862 5863 5864 5865 5866 5867 5868 5870 5870 5871 5872
5886 5885 5883 5881 5880 5879 5878 5876 5875 5874 5872 5871 5870 5869 5867 5866 5864 5862 5860 5859 5858 5856 5854 5853 5853 5855 5857 5858 5859 5859 5859 5860 5861 5862 5863 5864 5865 5867 5867 5868 5869 5870 5871
5884 5883 5882 5879 5878 5877 5876 5875 5873 5871 5870 5869 5869 5867 5866 5864 5862 5860 5858 5857 5856 5855 5854 5854 5854 5855 5857 5858 5859 5859 5859 5860 5860 5861 5862 5864 5865 5866 5866 5867 5868 5869 5869
5883 5881 5880 5878 5876 5875 5874 5873 5871 5869 5868 5867 5867 5866 5864 5863 5861 5859 5857 5856 5856 5856 5855 5855 5855 5856 5857 5858 5858 5859 5859 5859 5860 5861 5862 5863 5864 5864 5865 5865 5866 5867 5868
5880 5879 5878 5876 5875 5873 5872 5871 5869 5867 5866 5865 5864 5864 5863 5861 5860 5858 5857 5856 5856 5856 5856 5856 5856 5857 5857 5857 5858 5858 5859 5859 5859 5860 5861 5862 5863 5863 5864 5865 5865 5866 5867
5878 5876 5875 5874 5872 5871 5869 5868 5866 5865 5864 5863 5862 5861 5861 5860 5859 5858 5857 5856 5856 5856 5855 5855 5855 5856 5856 5857 5857 5858 5858 5858 5859 5859 5860 5861 5862 5862 5863 5864 5864 5865 5865
5875 5874 5872 5871 5869 5868 5867 5865 5864 5863 5862 5860 5859 5859 5858 5858 5857 5856 5856 5855 5855 5855 5855 5855 5854 5855 5855 5855 5856 5857 5857 5857 5858 5859 5859 5860 5860 5861 5862 5862 5862 5863 5863
5872 5870 5869 5868 5866 5865 5864 5863 5861 5860 5859 5857 5857 5856 5856 5855 5854 5854 5854 5854 5853 5853 5853 5853 5853 5854 5854 5854 5855 5855 5856 5856 5857 5857 5858 5859 5859 5859 5860 5860 5860 5861 5861
5868 5867 5866 5865 5864 5863 5861 5860 5858 5857 5856 5855 5854 5853 5853 5853 5852 5852 5852 5851 5851 5851 5851 5852 5852 5852 5852 5853 5853 5854 5854 5855 5855 5856 5856 5857 5857 5857 5857 5858 5858 5859 5859
5865 5864 5863 5862 5861 5860 5858 5856 5855 5854 5853 5852 5850 5850 5849 5849 5849 5849 5849 5849 5849 5849 5849 5849 5849 5850 5850 5851 5852 5852 5853 5853 5853 5854 5854 5855 5855 5855 5855 5855 5856 5856 5856
5862 5861 5860 5859 5858 5856 5855 5853 5851 5850 5850 5849 5847 5847 5846 5845 5845 5846 5846 5846 5846 5846 5847 5847 5847 5847 5848 5849 5849 5850 5851 5851 5852 5852 5853 5853 5853 5853 5853 5853 5853 5854 5854
5859 5857 5856 5855 5854 5853 5851 5849 5848 5847 5846 5845 5844 5844 5843 5842 5842 5842 5842 5842 5842 5843 5843 5844 5844 5845 5845 5846 5846 5847 5847 5848 5849 5850 5850 5850 5850 5850 5850 5851 5851 5851 5851
5855 5853 5852 5850 5849 5848 5847 5846 5844 5843 5842 5841 5841 5840 5840 5839 5839 5839 5839 5839 5839 5839 5840 5841 5841 5842 5842 5843 5843 5844 5844 5845 5846 5846 5847 5847 5848 5848 5848 5848 5848 5848 5848